Tracking 19709 objects as of 20-Jun-2019
HD Live streaming from Space Station
objects crossing your sky now

FLOCK 3P 57

Track FLOCK 3P 57 now!
10-day predictions
FLOCK 3P 57 is classified as:


NORAD ID: 41978
Int'l Code: 2017-008AG
Perigee: 490.3 km
Apogee: 503.1 km
Inclination: 97.4 °
Period: 94.4 minutes
Semi major axis: 6867 km
RCS: Unknown
Launch date: February 15, 2017
Source: United States (US)
Launch site: SRIHARIKOTA (SRI)
aabbcc
Your satellite tracking list
Your tracking list is empty




NASA's NSSDC Master Catalog

Two Line Element Set (TLE):
1 41978U 17008AG  19170.15443259  .00000844  00000-0  36268-4 0  9991
2 41978  97.4067 237.1723 0009289 131.9706 228.2325 15.25398997129873
Source of the keplerian elements: AFSPC